Weather in Sanatornoe

Russia / Sakhalin District     47°06′17″N   142°37′53″E
temp.,
°C
wind,
m/s
gust,
m/s
humid.,
%
clouds,
%
prec.,
mm/h
press.,
hPa
HPBL,
m
12 may, wed
wed1223:00−2nne349647 0.0 102198
02:000nne129023 0.0 102291
05:00−1nnw11936 0.0 102210
08:00+2sw11765 0.0 1023213
11:00+7ssw32555 0.0 1022886
14:00+10s33464 0.0 10201423
17:00+8ssw44609 0.0 1020709
20:00+4ssw467498 0.0 1021253
13 may, thu
thu1323:00+1s3691100 0.0 1021145
02:000ssw3698100 0.0 1021162
05:00+1s2691100 0.0 1019180
08:00+3s3583100 0.1 1018172
11:00+5s4586100 0.3 1016318
14:00+5ssw4791100 0.1 1015373
17:00+8ssw478198 0.1 1013563
20:00+7s47870 0.0 1013292
14 may, fri
fri1423:00+4s359817 0.0 101485
02:00+3s359794 0.0 101394
05:00+4s359657 0.1 101180
08:00+7s35882 0.0 1011220
11:00+11ssw3472100 0.1 1011550
14:00+15s556275 0.1 1009944
17:00+15w245862 1.9 10091201
20:00+10nne34871 0.8 1011172
15 may, sat
sat1523:00+5n34968 0.8 101475
02:00+5nne33925 0.0 101550
05:00+4ne119138 0.0 101511
08:00+6sse1287100 0.0 1015132
11:00+10s4576100 0.0 1015436
14:00+9ssw6985100 0.0 1014440
17:00+8ssw5885100 0.1 1012344
20:00+6sse41099100 6.1 1010284
16 may, sun
sun1623:00+6s61498100 9.8 1009497
02:00+6ssw61598100 10.0 1006781
05:00+6s4799100 17.8 1004246
08:00+8ssw2499100 1.6 1004130
11:00+12sw477373 1.7 1003831
14:00+15wsw81260100 0.0 10021734
17:00+14wsw7115884 0.1 10011445
20:00+12sw37749 0.0 1002322